FW9285 Weather Reports


Display with metric or nautical units.
time (UTC)temp
F
wind
direction
speed
MPH
gust
MPH
rain 1hr
in
rain 24hr
in
rain mn
in
humidity
%
barometer
mb
20260906213723 103 311 2.0 6.0 0.00 0.00 0.00 27 1009.2
20260906212723 104 261 4.0 8.0 0.00 0.00 0.00 26 1008.8
20260906210723 104 238 4.0 6.0 0.00 0.00 0.00 27 1009.2
20260906205724 101 357 2.0 10.0 0.00 0.00 0.00 28 1009.3
20260906204723 103 272 8.0 9.0 0.00 0.00 0.00 27 1009.4
20260906203725 103 352 2.0 8.0 0.00 0.00 0.00 28 1009.6
20260906202723 103 7 1.0 10.0 0.00 0.00 0.00 28 1009.8
20260906200723 102 237 3.0 9.0 0.00 0.00 0.00 28 1010.0
20260906195723 102 239 3.0 5.0 0.00 0.00 0.00 28 1010.1
20260906193723 102 215 5.0 9.0 0.00 0.00 0.00 29 1010.3
20260906192723 100 21 1.0 5.0 0.00 0.00 0.00 30 1010.5
20260906191723 100 30 1.0 5.0 0.00 0.00 0.00 30 1010.4
20260906190723 101 272 1.0 6.0 0.00 0.00 0.00 30 1010.6
20260906185723 99 241 4.0 6.0 0.00 0.00 0.00 31 1010.7
20260906184725 98 278 2.0 5.0 0.00 0.00 0.00 31 1011.0
20260906183725 99 170 1.0 6.0 0.00 0.00 0.00 31 1010.9
20260906182723 99 132 2.0 4.0 0.00 0.00 0.00 31 1011.0
20260906181723 98 294 0.0 5.0 0.00 0.00 0.00 32 1011.3
20260906175723 96 212 2.0 5.0 0.00 0.00 0.00 32 1011.8
20260906173724 98 124 3.0 3.0 0.00 0.00 0.00 32 1012.0
20260906172723 96 257 4.0 4.0 0.00 0.00 0.00 34 1011.9
20260906171723 95 47 1.0 4.0 0.00 0.00 0.00 35 1011.9
20260906165723 95 150 1.0 5.0 0.00 0.00 0.00 36 1012.1
20260906164723 94 192 1.0 5.0 0.00 0.00 0.00 36 1012.2
20260906163725 94 217 2.0 4.0 0.00 0.00 0.00 36 1012.0
20260906162724 93 201 2.0 4.0 0.00 0.00 0.00 37 1012.1
20260906161723 93 156 1.0 5.0 0.00 0.00 0.00 37 1012.2
20260906160724 91 157 1.0 4.0 0.00 0.00 0.00 40 1012.0
20260906155725 92 163 3.0 4.0 0.00 0.00 0.00 40 1012.3
20260906154723 91 249 0.0 4.0 0.00 0.00 0.00 43 1012.2
20260906153723 91 212 0.0 3.0 0.00 0.00 0.00 43 1012.0
20260906152726 88 173 1.0 4.0 0.00 0.00 0.00 45 1012.3
20260906150723 88 169 0.0 4.0 0.00 0.00 0.00 45 1012.3
20260906145723 85 261 2.0 5.0 0.00 0.00 0.00 48 1012.2
20260906144723 83 243 4.0 4.0 0.00 0.00 0.00 51 1012.1
20260906143723 82 198 2.0 3.0 0.00 0.00 0.00 53 1012.3
20260906142723 81 163 2.0 4.0 0.00 0.00 0.00 53 1012.1
20260906141725 81 203 2.0 4.0 0.00 0.00 0.00 53 1012.2
20260906140724 81 206 2.0 4.0 0.00 0.00 0.00 53 1011.9
20260906135724 80 182 2.0 3.0 0.00 0.00 0.00 55 1011.8
20260906134723 80 211 0.0 3.0 0.00 0.00 0.00 56 1011.8
20260906133728 79 196 2.0 3.0 0.00 0.00 0.00 57 1011.6
20260906131725 78 212 1.0 2.0 0.00 0.00 0.00 59 1011.2
20260906130724 78 230 1.0 3.0 0.00 0.00 0.00 58 1011.3
20260906125723 78 201 2.0 4.0 0.00 0.00 0.00 58 1011.5
20260906124723 78 191 2.0 3.0 0.00 0.00 0.00 58 1011.2
20260906123725 78 201 2.0 2.0 0.00 0.00 0.00 57 1011.0
20260906122724 78 192 1.0 2.0 0.00 0.00 0.00 56 1011.0
20260906121723 78 243 2.0 2.0 0.00 0.00 0.00 57 1010.8
20260906120726 79 224 0.0 3.0 0.00 0.00 0.00 58 1010.8
20260906115724 78 219 2.0 4.0 0.00 0.00 0.00 58 1010.8
20260906114724 79 183 3.0 4.0 0.00 0.00 0.00 58 1010.8
20260906113725 78 215 2.0 2.0 0.00 0.00 0.00 59 1010.8
20260906111723 79 243 2.0 3.0 0.00 0.00 0.00 57 1010.9
20260906105723 79 192 2.0 3.0 0.00 0.00 0.00 55 1010.9
20260906104724 79 224 1.0 2.0 0.00 0.00 0.00 55 1010.9
20260906103723 80 238 1.0 2.0 0.00 0.00 0.00 54 1011.0
20260906102723 80 239 2.0 3.0 0.00 0.00 0.00 53 1010.5
20260906101726 80 240 2.0 2.0 0.00 0.00 0.00 52 1010.7
20260906100723 80 229 2.0 2.0 0.00 0.00 0.00 52 1010.6
20260906095723 80 244 2.0 2.0 0.00 0.00 0.00 52 1010.7
20260906094723 80 243 2.0 2.0 0.00 0.00 0.00 51 1010.6
20260906093723 80 251 2.0 2.0 0.00 0.00 0.00 52 1010.5
20260906092723 80 223 1.0 2.0 0.00 0.00 0.00 53 1010.4
20260906091724 80 236 1.0 2.0 0.00 0.00 0.00 53 1010.4
20260906090723 81 237 2.0 2.0 0.00 0.00 0.00 53 1010.8
20260906085723 81 210 2.0 2.0 0.00 0.00 0.00 53 1010.9
20260906083723 82 203 1.0 2.0 0.00 0.00 0.00 50 1010.8
20260906082723 82 232 2.0 2.0 0.00 0.00 0.00 50 1010.9
20260906081723 82 246 2.0 2.0 0.00 0.00 0.00 49 1010.9
20260906080723 83 237 1.0 3.0 0.00 0.00 0.00 49 1011.0
20260906075723 83 216 1.0 3.0 0.00 0.00 0.00 48 1011.0
20260906074723 83 200 1.0 2.0 0.00 0.00 0.00 49 1011.0
20260906073723 84 221 2.0 3.0 0.00 0.00 0.00 47 1011.0
20260906072724 85 206 2.0 3.0 0.00 0.00 0.00 45 1011.2
20260906071723 84 257 2.0 2.0 0.00 0.00 0.00 45 1011.3
20260906070724 85 273 1.0 2.0 0.00 0.00 0.00 45 1011.2
20260906064723 86 320 1.0 1.0 0.00 0.00 0.00 44 1011.1
20260906063723 86 241 0.0 2.0 0.00 0.00 0.00 43 1011.3
20260906062724 87 350 0.0 2.0 0.00 0.00 0.00 42 1011.1
20260906061723 86 301 0.0 2.0 0.00 0.00 0.00 45 1011.0
20260906060723 87 351 1.0 2.0 0.00 0.00 0.00 43 1011.2
20260906055723 87 78 0.0 1.0 0.00 0.00 0.00 43 1011.2
20260906054723 87 283 0.0 0.0 0.00 0.00 0.00 42 1011.3
20260906052723 88 236 1.0 3.0 0.00 0.00 0.00 39 1011.3
20260906051723 89 283 1.0 2.0 0.00 0.00 0.00 39 1011.6
20260906050723 88 294 2.0 2.0 0.00 0.00 0.00 39 1011.2
20260906044723 89 318 1.0 2.0 0.00 0.00 0.00 40 1011.1
20260906043723 89 321 0.0 2.0 0.00 0.00 0.00 38 1011.2
20260906042723 90 315 0.0 2.0 0.00 0.00 0.00 38 1011.1
20260906041723 91 314 1.0 2.0 0.00 0.00 0.00 37 1011.2
20260906040725 90 311 2.0 2.0 0.00 0.00 0.00 38 1011.2
20260906035723 90 310 0.0 2.0 0.00 0.00 0.00 38 1011.1
20260906034724 91 324 1.0 2.0 0.00 0.00 0.00 37 1011.1
20260906033726 91 352 0.0 2.0 0.00 0.00 0.00 37 1011.0
20260906030723 92 336 1.0 4.0 0.00 0.00 0.00 35 1010.8
20260906024725 93 327 2.0 4.0 0.00 0.00 0.00 34 1010.4
20260906023722 93 318 2.0 4.0 0.00 0.00 0.00 34 1010.5
20260906022723 94 159 1.0 6.0 0.00 0.00 0.00 33 1010.5
20260906021730 94 339 3.0 5.0 0.00 0.00 0.00 32 1010.2
20260906020724 95 324 5.0 6.0 0.00 0.00 0.00 32 1010.3
20260906014723 96 322 2.0 6.0 0.00 0.00 0.00 33 1010.1
20260906013723 96 347 2.0 12.0 0.00 0.00 0.00 32 1010.4
20260906011724 97 319 2.0 8.0 0.00 0.00 0.00 34 1010.0
20260906010724 98 356 2.0 5.0 0.00 0.00 0.00 34 1010.1
20260906005724 99 335 2.0 4.0 0.00 0.00 0.00 33 1010.0
20260906004723 99 11 0.0 4.0 0.00 0.00 0.00 33 1010.2
20260906003723 100 351 2.0 6.0 0.00 0.00 0.00 32 1010.2
20260906002723 100 248 4.0 8.0 0.00 0.00 0.00 32 1010.2
20260906001726 101 217 2.0 11.0 0.00 0.00 0.00 31 1010.2
20260906000723 101 249 2.0 10.0 0.00 0.00 0.00 31 1010.1
20260905235723 103 286 3.0 7.0 0.00 0.00 0.00 30 1010.0
20260905234723 103 329 0.0 7.0 0.00 0.00 0.00 30 1010.1
20260905233723 102 269 1.0 5.0 0.00 0.00 0.00 30 1010.1
20260905231723 101 247 3.0 11.0 0.00 0.00 0.00 31 1010.1
20260905230723 102 295 2.0 8.0 0.00 0.00 0.00 31 1010.4
20260905224723 101 336 2.0 10.0 0.00 0.00 0.00 31 1010.2
20260905222726 103 254 3.0 10.0 0.00 0.00 0.00 31 1010.5
20260905221724 102 351 2.0 8.0 0.00 0.00 0.00 31 1010.7
20260905220723 101 171 2.0 6.0 0.00 0.00 0.00 32 1010.7
20260905215723 102 163 1.0 10.0 0.00 0.00 0.00 31 1010.8